Regional Weather Roundup
Issued by NWS

Home | Current Version | Previous Version | Graphics & Text | Print | Product List | Glossary On
Versions: 1 2 3 4 5 6 7 8 9 10 11 12 13 14 15 16 17 18 19 20 21 22 23 24 25 26 27 28 29 30 31 32 33 34 35 36 37 38 39 40 41 42 43 44 45 46 47 48 49 50
000
ASUS43 KDMX 021507
RWRIA

WEATHER ROUNDUP FOR IOWA
NATIONAL WEATHER SERVICE DES MOINES IA
1000 AM CDT TUE SEP 02 2014

NOTE: "FAIR" INDICATES FEW OR NO CLOUDS BELOW 12,000 FEET WITH NO
SIGNIFICANT WEATHER AND/OR OBSTRUCTIONS TO VISIBILITY.

* - THESE STATIONS ARE NOT NWS STATIONS...THUS NOT UNDER NWS
QUALITY CONTROL.  THEY ALSO DO NOT REPORT WEATHER SUCH
AS PRECIPITATION OR FOG.

IAZ001>003-012>014-020>022-031>034-043>046-021600-
   NORTHWEST IOWA

CITY           SKY/WX    TMP DP  RH WIND       PRES   REMARKS
CARROLL *      SUNNY     66  59  77 W5        29.99S
CHEROKEE *     SUNNY     66  61  82 W3        29.99R
DENISON *      PTSUNNY   61  61 100 VRB5      30.00R
LE MARS *      SUNNY     64  59  82 SW5       29.98S
ORANGE CITY *  SUNNY     64  57  77 SW7       29.98S
SHELDON *      SUNNY     64  59  82 VRB6      29.96S
SIOUX CITY     SUNNY     66  59  78 SW3       29.99R
SPENCER        SUNNY     67  58  72 SW7       29.97R
STORM LAKE *   SUNNY     64  63  94 SW8       29.99R
$$

IAZ055>058-069>071-079>083-090>094-021600-
   SOUTHWEST IOWA

CITY           SKY/WX    TMP DP  RH WIND       PRES   REMARKS
ATLANTIC *     SUNNY     66  59  77 NW6       30.00S
AUDUBON *      SUNNY     66  63  88 SW5       30.02R
CLARINDA *     SUNNY     70  61  73 NW7       30.01R
COUNCIL BLFS * SUNNY     66  61  82 NW5       30.00F
CRESTON *      SUNNY     66  61  82 NW9       30.00S
HARLAN  *      PTSUNNY   63  61  94 CALM      30.04F
LAMONI         SUNNY     71  60  68 NW9       29.98R
RED OAK *      SUNNY     66  61  82 N5        30.00F
SHENANDOAH *   SUNNY     68  63  83 N6        30.00F
$$

IAZ047>049-059>061-072>074-084-021600-
   CENTRAL IOWA

CITY           SKY/WX    TMP DP  RH WIND       PRES   REMARKS
AMES           MOSUNNY   68  60  75 VRB3      29.97R
ANKENY *       SUNNY     68  61  77 VRB3      29.97R
CHARITON *     SUNNY     68  61  77 NW7       29.98R
DES MOINES     MOSUNNY   70  58  65 NW7       29.97R
GRINNELL*      SUNNY     68  59  73 CALM      29.96S
KNOXVILLE *    SUNNY     68  61  77 NW8       29.96R
MARSHALLTOWN   SUNNY     67  59  75 CALM      29.96R
PELLA *        SUNNY     70  61  73 N3        29.98R
PERRY *          N/A     66  59  77 CALM      29.99S
$$

IAZ004>006-015-016-023>025-035-036-021600-
   NORTH CENTRAL IOWA

CITY           SKY/WX    TMP DP  RH WIND       PRES   REMARKS
ALGONA *       SUNNY     68  59  73 SW7       29.97R
CLARION *      SUNNY     68  59  73 VRB5      29.96R
ESTHERVILLE    SUNNY     66  57  72 W8        29.95R
FORT DODGE *   SUNNY     66  57  72 SW5       29.99R
MASON CITY     SUNNY     68  60  75 SW5       29.96R
FOREST CITY *  SUNNY     70  61  73 SW5       29.95R
IOWA FALLS *     N/A     66  57  72 CALM      29.97R
$$

IAZ007>011-017>019-026>030-037>042-050>054-066-021600-
   NORTHEAST IOWA

CITY           SKY/WX    TMP DP  RH WIND       PRES   REMARKS
CEDAR RAPIDS   SUNNY     68  61  78 CALM      29.93F
CHARLES CITY * SUNNY     70  55  60 CALM      29.94R
CLINTON *      PTSUNNY   63  57  82 N13G18    29.98S
DECORAH *      SUNNY     66  55  68 CALM      29.92F
DUBUQUE        PTSUNNY   62  59  90 S6        29.94F
MONTICELLO *   PTSUNNY   64  61  88 CALM      29.94S
OELWEIN *      SUNNY     66  59  77 NE5       29.94S
WATERLOO       SUNNY     67  58  72 CALM      29.93R
$$

IAZ064-065-067-068-078-021600-
   EAST CENTRAL IOWA

CITY           SKY/WX    TMP DP  RH WIND       PRES   REMARKS
DAVENPORT      MOSUNNY   70  60  70 N13G22    29.95R
IOWA CITY      SUNNY     70  61  73 N5        29.96R
MT. PLEASANT * MOSUNNY   75  63  64 N8        29.95S
MUSCATINE *    PTSUNNY   72  63  73 N10       29.95S
QUAD CITIES    MOSUNNY   73  63  70 NW9G21    29.94R
$$

IAZ062-063-075>077-085>089-095>099-021600-
   SOUTHEAST IOWA

CITY           SKY/WX    TMP DP  RH WIND       PRES   REMARKS
BURLINGTON     MOSUNNY   74  67  78 NW9       29.95R
FAIRFIELD *    SUNNY     72  63  73 NE6       29.96R
FORT MADISON * SUNNY     75  68  78 NW6       29.96R
KEOKUK *       SUNNY     72  68  88 W5        29.95R
OSKALOOSA *      N/A     70  64  83 CALM      29.96S
CENTERVILLE *  SUNNY     70  64  83 CALM      29.98S
OTTUMWA        SUNNY     71  63  75 CALM      29.95R
WASHINGTON *   SUNNY     72  66  83 NE8       29.95S
$$

ABBREVIATIONS USED IN REMARKS
   TC - TEMPERATURES IN CELSIUS
  WCI - WIND CHILL INDEX
   HX - HEAT INDEX
  VSB - VISIBILITY
$$



USA.gov is the U.S. government's official web portal to all federal, state and local government web resources and services.